KE8URB Weather Reports


time (UTC)temp
C
wind
direction
speed
KPH
gust
KPH
rain 1hr
cm
rain 24hr
cm
rain mn
cm
humidity
%
barometer
mb
20260510103749 10 99 0.0 0.0 0.00 0.08 0.08 99 1012.7
20260510103246 10 100 0.0 0.0 0.00 0.08 0.08 99 1012.3
20260510102746 10 63 0.0 0.0 0.00 0.08 0.08 99 1012.2
20260510102242 10 69 0.0 0.0 0.00 0.08 0.08 99 1012.3
20260510101740 10 92 0.0 0.0 0.00 0.08 0.08 99 1011.9
20260510101238 10 116 0.0 0.0 0.00 0.08 0.08 99 1012.0
20260510100733 11 75 0.0 0.0 0.00 0.08 0.08 99 1011.9
20260510100232 11 39 0.0 0.0 0.00 0.08 0.08 99 1012.0
20260510095727 11 45 0.0 0.0 0.00 0.08 0.08 99 1011.8
20260510095222 11 82 0.0 0.0 0.00 0.08 0.08 99 1011.6
20260510094721 11 93 0.0 0.0 0.00 0.08 0.08 99 1011.8
20260510094217 11 52 0.0 0.0 0.00 0.08 0.08 99 1011.4
20260510093713 11 39 0.0 0.0 0.00 0.08 0.08 99 1011.5
20260510093210 11 251 0.0 0.0 0.00 0.08 0.08 99 1011.4
20260510092707 11 297 3.2 3.2 0.00 0.08 0.08 99 1011.4
20260510092202 11 340 0.0 1.6 0.00 0.08 0.08 99 1011.3
20260510091658 11 294 3.2 3.2 0.00 0.08 0.08 99 1011.2
20260510091154 11 287 0.0 0.0 0.00 0.08 0.08 99 1011.0
20260510090651 11 303 0.0 0.0 0.00 0.08 0.08 99 1011.0
20260510090148 11 250 0.0 1.6 0.00 0.08 0.08 99 1010.7
20260510085643 11 265 0.0 0.0 0.00 0.08 0.08 99 1010.8
20260510085138 11 255 0.0 0.0 0.00 0.08 0.08 99 1010.5
20260510084635 11 267 3.2 3.2 0.00 0.08 0.08 99 1010.6
20260510084132 11 187 0.0 0.0 0.00 0.08 0.08 99 1010.6
20260510083628 10 139 0.0 0.0 0.00 0.08 0.08 99 1010.4
20260510083125 10 120 0.0 0.0 0.00 0.08 0.08 99 1010.4
20260510082621 10 120 0.0 0.0 0.00 0.08 0.08 99 1010.2
20260510082118 11 120 0.0 0.0 0.00 0.08 0.08 99 1010.3
20260510081617 11 119 0.0 0.0 0.00 0.08 0.08 99 1010.2
20260510081114 11 119 0.0 0.0 0.00 0.08 0.08 99 1010.4
20260510080613 11 180 0.0 0.0 0.00 0.08 0.08 99 1010.3
20260510080110 11 181 0.0 0.0 0.00 0.08 0.08 99 1010.4
20260510075607 11 207 0.0 0.0 0.00 0.08 0.08 99 1010.4
20260510075104 11 39 0.0 0.0 0.00 0.08 0.08 99 1010.2
20260510074602 11 103 0.0 0.0 0.00 0.08 0.08 99 1010.0
20260510074057 11 4 0.0 0.0 0.00 0.08 0.08 99 1009.9
20260510073553 11 228 0.0 0.0 0.00 0.08 0.08 99 1010.1
20260510073051 11 351 3.2 3.2 0.00 0.08 0.08 99 1010.0
20260510072547 11 293 4.8 4.8 0.00 0.08 0.08 99 1010.0
20260510072043 11 276 0.0 0.0 0.00 0.08 0.08 99 1009.8
20260510071539 11 272 0.0 0.0 0.00 0.08 0.08 99 1009.8
20260510071037 11 251 0.0 0.0 0.00 0.08 0.08 99 1010.0
20260510070534 11 188 0.0 0.0 0.00 0.08 0.08 99 1009.8
20260510070031 11 179 0.0 0.0 0.00 0.08 0.08 99 1009.7
20260510065527 11 275 0.0 0.0 0.00 0.08 0.08 99 1009.6
20260510065023 11 197 1.6 3.2 0.00 0.08 0.08 99 1009.5
20260510064520 11 175 0.0 0.0 0.00 0.08 0.08 99 1009.8
20260510064017 11 168 0.0 0.0 0.00 0.08 0.08 99 1009.6
20260510063513 11 277 1.6 1.6 0.00 0.08 0.08 99 1009.8
20260510063011 12 192 0.0 0.0 0.00 0.08 0.08 99 1009.5
20260510062506 12 119 0.0 0.0 0.00 0.08 0.08 99 1009.7
20260510062001 12 121 0.0 0.0 0.00 0.08 0.08 98 1009.7
20260510061458 12 122 0.0 0.0 0.00 0.08 0.08 98 1009.6
20260510060955 12 154 0.0 0.0 0.00 0.08 0.08 98 1009.6
20260510060452 12 193 4.8 4.8 0.00 0.08 0.08 98 1009.6
20260510055948 12 160 3.2 3.2 0.00 0.08 0.08 99 1009.7
20260510055444 12 165 0.0 0.0 0.00 0.08 0.08 99 1009.6
20260510054942 12 176 0.0 0.0 0.00 0.08 0.08 99 1009.8
20260510054437 12 189 3.2 3.2 0.00 0.08 0.08 99 1009.8
20260510053932 12 62 0.0 0.0 0.00 0.08 0.08 99 1009.9
20260510053428 12 37 0.0 0.0 0.00 0.08 0.08 99 1010.0
20260510052924 12 282 0.0 0.0 0.00 0.08 0.08 99 1010.2
20260510052420 12 192 0.0 0.0 0.30 0.08 0.08 99 1010.3
20260510051917 12 263 1.6 1.6 0.43 0.08 0.08 99 1010.6
20260510051413 12 251 1.6 3.2 0.13 0.03 0.03 99 1010.7
20260510050910 12 263 4.8 8.0 0.00 0.00 0.00 99 1010.8
20260510050407 12 263 1.6 3.2 0.00 0.00 0.00 99 1010.8
20260510045904 12 323 3.2 3.2 0.00 0.00 0.00 99 1010.3
20260510045401 12 68 0.0 0.0 0.00 0.00 0.00 99 1009.6
20260510044858 12 68 0.0 0.0 0.00 0.00 0.00 99 1009.4
20260510044354 12 68 0.0 0.0 0.00 0.00 0.00 99 1009.5
20260510043851 12 68 0.0 0.0 0.00 0.00 0.00 99 1009.4
20260510043347 12 69 0.0 0.0 0.00 0.00 0.00 99 1009.2
20260510042845 12 68 0.0 0.0 0.00 0.00 0.00 99 1009.5
20260510042340 12 71 0.0 0.0 0.00 0.00 0.00 99 1009.6
20260510041837 12 81 0.0 0.0 0.00 0.00 0.00 99 1009.4
20260510041334 12 81 0.0 0.0 0.00 0.00 0.00 99 1009.6
20260510040832 12 57 1.6 1.6 0.00 0.00 0.00 99 1009.7
20260510040328 12 102 0.0 0.0 0.00 0.00 0.00 99 1009.7
20260510035824 12 112 0.0 0.0 0.00 0.61 0.61 99 1009.6
20260510035320 12 32 1.6 1.6 0.00 0.61 0.61 99 1009.5
20260510034815 12 5 0.0 0.0 0.00 0.61 0.61 99 1009.3
20260510034313 12 65 0.0 0.0 0.00 0.61 0.61 99 1009.3
20260510033809 12 77 0.0 0.0 0.18 0.61 0.61 99 1009.4
20260510033307 12 20 3.2 4.8 0.18 0.61 0.61 99 1009.2
20260510032803 13 44 4.8 4.8 0.00 0.58 0.58 99 1009.3
20260510032300 13 73 0.0 0.0 0.00 0.58 0.58 99 1009.1
20260510031755 13 61 0.0 0.0 0.00 0.58 0.58 99 1009.4
20260510031251 13 66 0.0 0.0 0.00 0.58 0.58 99 1009.0
20260510030751 12 68 0.0 0.0 0.00 0.58 0.58 99 1009.1
20260510030248 13 54 0.0 0.0 0.00 0.58 0.58 99 1008.8
20260510025745 13 57 0.0 0.0 0.00 0.58 0.58 99 1008.9
20260510025243 13 66 1.6 1.6 0.00 0.58 0.58 99 1009.0
20260510024740 13 69 0.0 0.0 0.00 0.58 0.58 99 1008.9
20260510024236 13 93 0.0 0.0 0.00 0.58 0.58 99 1008.8
20260510023732 13 77 0.0 0.0 0.00 0.58 0.58 99 1008.9
20260510023230 13 85 0.0 0.0 0.00 0.58 0.58 99 1009.1
20260510022726 13 85 0.0 0.0 0.00 0.58 0.58 99 1009.1
20260510022225 12 78 0.0 0.0 0.00 0.58 0.58 99 1009.1
20260510021720 12 141 0.0 0.0 0.00 0.58 0.58 99 1008.9
20260510021219 12 142 0.0 0.0 0.00 0.58 0.58 99 1008.9
20260510020713 12 150 0.0 0.0 0.00 0.58 0.58 99 1009.0
20260510020208 12 152 0.0 0.0 0.00 0.58 0.58 99 1009.2
20260510015705 13 161 1.6 1.6 0.00 0.58 0.58 99 1009.2
20260510015201 13 95 0.0 0.0 0.00 0.58 0.58 98 1009.0
20260510014701 13 94 0.0 1.6 0.00 0.58 0.58 98 1009.1
20260510014159 13 136 1.6 1.6 0.00 0.58 0.58 98 1008.9
20260510013654 13 88 0.0 0.0 0.13 0.58 0.58 97 1009.1
20260510013150 13 89 0.0 0.0 0.43 0.58 0.58 97 1008.8
20260510012649 13 127 0.0 0.0 0.79 0.56 0.56 96 1009.0
20260510012145 13 181 0.0 1.6 1.07 0.51 0.51 96 1009.3
20260510011641 13 329 0.0 1.6 1.07 0.43 0.43 95 1009.0
20260510011137 13 184 3.2 4.8 1.27 0.33 0.33 93 1009.0
20260510010633 15 277 3.2 3.2 0.79 0.25 0.25 89 1008.9
20260510010130 16 290 8.0 12.9 0.00 0.13 0.13 81 1008.5
20260510005625 17 301 4.8 8.0 0.00 0.13 0.13 75 1008.1
20260510005123 18 319 8.0 12.9 0.00 0.13 0.13 66 1007.6
20260510004621 18 175 3.2 4.8 0.00 0.13 0.13 66 1006.6
20260510004119 18 176 8.0 11.3 0.00 0.13 0.13 65 1006.4
20260510003616 18 182 8.0 11.3 0.00 0.13 0.13 64 1006.5
20260510003111 18 192 4.8 4.8 0.00 0.13 0.13 64 1006.6
20260510002606 18 184 14.5 16.1 0.00 0.13 0.13 64 1006.8
20260510002103 18 224 8.0 14.5 0.00 0.13 0.13 65 1006.9
20260510001601 18 180 14.5 16.1 0.00 0.13 0.13 65 1006.6
20260510001059 18 199 14.5 16.1 0.00 0.13 0.13 65 1006.7
20260510000559 18 184 9.7 11.3 0.00 0.13 0.13 66 1006.7
20260510000056 18 172 9.7 12.9 0.00 0.13 0.13 65 1006.8
20260509235553 18 194 11.3 17.7 0.00 0.13 0.13 65 1006.8
20260509235050 18 195 6.4 11.3 0.00 0.13 0.13 67 1006.7
20260509234546 18 190 6.4 8.0 0.00 0.13 0.13 65 1006.6
20260509234044 19 213 8.0 11.3 0.00 0.13 0.13 65 1006.4
20260509233541 19 184 8.0 11.3 0.00 0.13 0.13 64 1006.6
20260509233038 20 190 9.7 14.5 0.00 0.13 0.13 63 1006.5
20260509232535 20 171 8.0 9.7 0.00 0.13 0.13 63 1006.5
20260509232032 20 197 11.3 14.5 0.00 0.13 0.13 63 1006.5
20260509231528 20 177 12.9 17.7 0.00 0.13 0.13 62 1006.3
20260509231026 20 186 6.4 8.0 0.00 0.13 0.13 63 1006.4
20260509230522 20 172 9.7 11.3 0.00 0.13 0.13 62 1006.2
20260509230019 20 187 8.0 14.5 0.00 0.13 0.13 62 1006.2
20260509225514 20 164 11.3 14.5 0.00 0.13 0.13 62 1006.1
20260509225010 20 213 11.3 16.1 0.00 0.13 0.13 61 1005.9
20260509224506 20 209 8.0 12.9 0.00 0.13 0.13 62 1006.1
20260509224003 20 193 9.7 11.3 0.00 0.13 0.13 60 1006.2
20260509223500 20 198 19.3 25.7 0.00 0.13 0.13 61 1006.3
20260509222958 20 192 14.5 22.5 0.00 0.13 0.13 61 1006.2
20260509222453 20 208 8.0 11.3 0.00 0.13 0.13 62 1006.3
20260509221949 20 187 24.1 29.0 0.00 0.13 0.13 61 1006.4
20260509221445 20 159 17.7 22.5 0.00 0.13 0.13 60 1006.5
20260509220941 20 179 11.3 16.1 0.00 0.13 0.13 63 1006.4
20260509220437 20 186 17.7 22.5 0.00 0.13 0.13 62 1006.3
20260509215934 20 203 9.7 12.9 0.00 0.13 0.13 64 1006.4
20260509215429 20 223 12.9 14.5 0.00 0.13 0.13 64 1006.5
20260509214927 20 182 9.7 12.9 0.00 0.13 0.13 62 1006.6
20260509214424 20 186 17.7 22.5 0.00 0.13 0.13 62 1006.5
20260509213921 20 207 16.1 22.5 0.00 0.13 0.13 61 1006.5
20260509213416 20 232 11.3 14.5 0.00 0.13 0.13 62 1006.5
20260509212914 20 196 12.9 20.9 0.00 0.13 0.13 63 1006.5
20260509212412 20 209 22.5 27.4 0.00 0.13 0.13 62 1006.5
20260509211908 20 200 19.3 22.5 0.00 0.13 0.13 62 1006.8
20260509211403 20 170 17.7 20.9 0.00 0.13 0.13 64 1006.8
20260509210900 20 214 6.4 9.7 0.00 0.13 0.13 65 1006.7
20260509210358 20 193 12.9 14.5 0.00 0.13 0.13 65 1006.9
20260509205858 20 183 12.9 16.1 0.00 0.13 0.13 63 1006.8
20260509205352 20 188 14.5 17.7 0.00 0.13 0.13 63 1006.8
20260509204849 20 175 17.7 24.1 0.00 0.13 0.13 63 1006.8
20260509204345 20 167 8.0 11.3 0.00 0.13 0.13 65 1006.9
20260509203842 20 189 4.8 9.7 0.00 0.13 0.13 64 1006.7
20260509203338 20 247 4.8 4.8 0.00 0.13 0.13 64 1006.8
20260509202835 20 163 12.9 20.9 0.00 0.13 0.13 64 1006.8
20260509202331 20 162 14.5 16.1 0.00 0.13 0.13 62 1007.1
20260509201831 20 179 9.7 12.9 0.00 0.13 0.13 66 1006.9
20260509201327 20 196 12.9 16.1 0.00 0.13 0.13 65 1007.0
20260509200824 20 194 9.7 12.9 0.00 0.13 0.13 66 1007.1
20260509200319 20 200 8.0 12.9 0.00 0.13 0.13 66 1007.4
20260509195816 20 184 9.7 14.5 0.00 0.13 0.13 65 1007.3
20260509195316 20 218 9.7 12.9 0.00 0.13 0.13 67 1007.4
20260509194816 20 198 6.4 11.3 0.00 0.13 0.13 67 1007.7
20260509194312 19 203 17.7 20.9 0.00 0.13 0.13 66 1007.6
20260509193809 19 180 11.3 12.9 0.00 0.13 0.13 68 1007.9
20260509193309 20 183 11.3 16.1 0.00 0.13 0.13 69 1008.0
20260509192806 19 229 4.8 8.0 0.00 0.13 0.13 69 1007.7
20260509192305 18 279 4.8 4.8 0.00 0.13 0.13 69 1008.0
20260509191756 18 192 14.5 17.7 0.00 0.13 0.13 68 1007.9
20260509191253 18 193 9.7 12.9 0.00 0.13 0.13 70 1008.1
20260509190749 18 178 14.5 24.1 0.00 0.13 0.13 71 1008.2
20260509190246 18 201 14.5 20.9 0.00 0.13 0.13 71 1008.0
20260509185744 19 207 14.5 16.1 0.00 0.13 0.13 70 1008.1
20260509185240 18 225 8.0 9.7 0.00 0.13 0.13 72 1008.1
20260509184737 18 228 8.0 9.7 0.00 0.13 0.13 75 1008.0
20260509184235 18 164 11.3 16.1 0.00 0.13 0.13 72 1008.1
20260509183731 18 284 11.3 20.9 0.00 0.13 0.13 75 1008.3
20260509183226 18 210 16.1 22.5 0.00 0.13 0.13 73 1008.2
20260509182722 17 205 11.3 12.9 0.00 0.13 0.13 74 1008.4
20260509182220 17 165 8.0 11.3 0.00 0.13 0.13 76 1008.2
20260509181717 17 191 12.9 16.1 0.00 0.13 0.13 75 1008.2
20260509181214 17 231 3.2 3.2 0.00 0.13 0.13 77 1008.5
20260509180711 17 203 17.7 25.7 0.00 0.13 0.13 77 1008.4
20260509180207 17 218 11.3 14.5 0.00 0.13 0.13 76 1008.5
20260509175704 17 203 9.7 12.9 0.00 0.13 0.13 78 1008.4
20260509175201 17 166 8.0 11.3 0.00 0.13 0.13 78 1008.4
20260509174656 16 177 4.8 8.0 0.00 0.13 0.13 80 1008.4
20260509174157 17 184 9.7 16.1 0.00 0.13 0.13 80 1008.4
20260509173653 16 183 12.9 20.9 0.00 0.13 0.13 82 1008.5
20260509173149 16 190 16.1 17.7 0.00 0.13 0.13 81 1008.5
20260509172645 16 292 4.8 8.0 0.00 0.13 0.13 82 1008.4
20260509172142 16 215 11.3 14.5 0.00 0.13 0.13 82 1008.6
20260509171637 16 163 11.3 14.5 0.00 0.13 0.13 84 1008.6
20260509171134 15 255 6.4 8.0 0.00 0.13 0.13 85 1008.7
20260509170631 15 180 11.3 12.9 0.00 0.13 0.13 86 1008.8
20260509170127 16 171 8.0 11.3 0.00 0.13 0.13 85 1008.9
20260509165625 15 218 12.9 14.5 0.00 0.13 0.13 85 1008.7
20260509165121 15 196 6.4 8.0 0.00 0.13 0.13 87 1008.8
20260509164617 15 176 9.7 16.1 0.00 0.13 0.13 88 1008.8
20260509164113 15 211 11.3 14.5 0.00 0.13 0.13 87 1008.7
20260509163611 15 200 8.0 12.9 0.00 0.13 0.13 88 1008.5
20260509163106 15 192 4.8 8.0 0.00 0.13 0.13 89 1008.6
20260509162604 15 197 14.5 16.1 0.00 0.13 0.13 87 1008.6
20260509162100 15 203 11.3 20.9 0.00 0.13 0.13 89 1008.7
20260509161557 15 201 14.5 17.7 0.00 0.13 0.13 88 1008.8
20260509161056 14 222 4.8 8.0 0.00 0.13 0.13 90 1008.7
20260509160553 14 198 12.9 14.5 0.00 0.13 0.13 90 1008.7
20260509160048 14 183 6.4 11.3 0.00 0.13 0.13 90 1008.7
20260509155545 13 243 8.0 9.7 0.00 0.13 0.13 91 1008.6
20260509155041 13 252 11.3 12.9 0.00 0.13 0.13 91 1008.5
20260509154537 13 195 4.8 8.0 0.00 0.13 0.13 91 1008.7
20260509154035 13 193 8.0 11.3 0.00 0.13 0.13 91 1008.4
20260509153532 13 198 3.2 3.2 0.00 0.13 0.13 90 1008.5
20260509153028 14 188 4.8 4.8 0.00 0.13 0.13 92 1008.3
20260509152524 13 173 4.8 4.8 0.00 0.13 0.13 93 1008.2
20260509152021 13 208 3.2 3.2 0.00 0.13 0.13 93 1008.2
20260509151518 13 212 4.8 4.8 0.00 0.13 0.13 93 1008.2
20260509151016 13 186 6.4 9.7 0.00 0.13 0.13 93 1008.2
20260509150513 13 199 1.6 3.2 0.00 0.13 0.13 93 1008.2
20260509150011 13 212 8.0 9.7 0.00 0.13 0.13 93 1008.0
20260509145507 13 204 8.0 9.7 0.00 0.13 0.13 94 1008.2
20260509145002 13 192 4.8 4.8 0.00 0.13 0.13 94 1008.3
20260509144459 13 196 4.8 8.0 0.00 0.13 0.13 95 1008.1
20260509143956 12 226 4.8 9.7 0.00 0.13 0.13 96 1008.2
20260509143453 12 203 9.7 12.9 0.00 0.13 0.13 97 1008.3
20260509142950 12 189 6.4 8.0 0.00 0.13 0.13 97 1008.3
20260509142446 12 179 6.4 8.0 0.00 0.13 0.13 97 1008.4
20260509141941 12 191 8.0 11.3 0.00 0.13 0.13 97 1008.4
20260509141438 12 177 3.2 3.2 0.00 0.13 0.13 98 1008.3
20260509140935 12 188 6.4 8.0 0.00 0.13 0.13 98 1008.2
20260509140431 12 187 4.8 8.0 0.00 0.13 0.13 99 1008.4
20260509135930 12 190 6.4 9.7 0.00 0.13 0.13 99 1008.4
20260509135427 11 206 4.8 4.8 0.00 0.13 0.13 99 1008.3
20260509134924 11 192 11.3 12.9 0.00 0.13 0.13 99 1008.3
20260509134422 11 192 4.8 4.8 0.00 0.13 0.13 99 1008.3
20260509133919 11 200 8.0 9.7 0.00 0.13 0.13 99 1008.4
20260509133415 11 182 1.6 1.6 0.00 0.13 0.13 99 1008.7
20260509132914 11 279 3.2 3.2 0.00 0.13 0.13 99 1008.8
20260509132412 11 179 1.6 1.6 0.00 0.13 0.13 99 1008.6
20260509131908 11 200 4.8 8.0 0.00 0.13 0.13 99 1008.5
20260509131405 11 189 4.8 4.8 0.00 0.13 0.13 99 1008.5
20260509130902 11 239 1.6 3.2 0.00 0.13 0.13 99 1008.5
20260509130357 11 225 3.2 4.8 0.00 0.13 0.13 99 1008.6
20260509125855 11 268 3.2 3.2 0.00 0.13 0.13 99 1008.5
20260509125351 11 192 4.8 8.0 0.00 0.13 0.13 99 1008.8
20260509124847 11 172 6.4 8.0 0.00 0.13 0.13 99 1008.7
20260509124344 11 291 6.4 8.0 0.00 0.13 0.13 99 1008.6
20260509123842 11 182 6.4 9.7 0.00 0.13 0.13 99 1008.4
20260509123339 11 197 8.0 9.7 0.00 0.13 0.13 99 1008.4
20260509122834 11 173 11.3 11.3 0.00 0.13 0.13 99 1008.5
20260509122332 11 179 12.9 12.9 0.13 0.13 0.13 99 1008.7
20260509121829 10 185 6.4 8.0 0.13 0.13 0.13 99 1008.6
20260509121326 10 187 3.2 3.2 0.00 0.10 0.10 99 1008.5
20260509120824 10 174 8.0 9.7 0.00 0.10 0.10 99 1008.6
20260509120321 10 219 8.0 9.7 0.00 0.10 0.10 99 1008.5
20260509115820 10 174 6.4 8.0 0.00 0.10 0.10 99 1008.9
20260509115316 10 192 8.0 9.7 0.00 0.10 0.10 99 1008.8
20260509114814 10 194 8.0 8.0 0.00 0.10 0.10 99 1008.9
20260509114313 10 219 12.9 12.9 0.00 0.10 0.10 99 1008.7
20260509113812 10 197 8.0 9.7 0.00 0.10 0.10 99 1008.8
20260509113308 10 188 6.4 8.0 0.00 0.10 0.10 99 1008.6
20260509112805 10 199 8.0 9.7 0.00 0.10 0.10 99 1008.7
20260509112306 10 183 9.7 14.5 0.00 0.10 0.10 99 1008.8
20260509111759 10 194 6.4 9.7 0.18 0.10 0.10 99 1008.8
20260509111255 10 155 6.4 9.7 0.18 0.10 0.10 99 1008.5
20260509110753 10 194 6.4 9.7 0.00 0.08 0.08 99 1008.5
20260509110249 11 186 8.0 9.7 0.00 0.08 0.08 99 1008.4
20260509105748 11 188 12.9 14.5 0.13 0.08 0.08 98 1008.4
20260509105245 11 188 12.9 14.5 0.13 0.08 0.08 97 1008.3
20260509104742 11 180 16.1 17.7 0.00 0.05 0.05 96 1008.3
20260509104239 11 216 6.4 9.7 0.00 0.05 0.05 96 1008.2